Yeovilton, United Kingdom

3:57 PM GMT on December 14, 2017 (GMT +0000)
Yeovil Radar Navy

Weather History for EGDY - October, 2013

Change the Weather History Date:

Thursday, October 17, 2013

  Actual Average Record
Temperature  
Mean Temperature 60 °F -  
Max Temperature 66 °F 53 °F 66 °F (2001)
Min Temperature 51 °F 41 °F 28 °F (2010)
Degree Days  
Heating Degree Days 6    
Growing Degree Days 10 (Base 50)    
Moisture  
Dew Point 53 °F    
Average Humidity 83    
Maximum Humidity 100    
Minimum Humidity 54    
Precipitation  
Precipitation 0.00 in - - ()
Sea Level Pressure  
Sea Level Pressure 29.94 in    
Wind  
Wind Speed 6 mph ()    
Max Wind Speed 13 mph    
Max Gust Speed -    
Visibility 6.8 miles    
Events      
Averages and records for this station are not official NWS values.
T = Trace of Precipitation, MM = Missing Value Source: Averaged Metar Reports

Daily Weather History Graph

Daily Weather History Graph

Search for Another Location

Airport or City:

Trip Planner

Search our weather history database for the weather conditions in past years. The results will help you decide how hot, cold, wet, or windy it might be!

Date:

Astronomy

Oct. 17, 2013 Rise Set
Actual Time 7:37 AM BST 6:13 PM BST
Civil Twilight 7:03 AM BST 6:46 PM BST
Nautical Twilight 6:25 AM BST 7:25 PM BST
Astronomical Twilight 5:47 AM BST 8:03 PM BST
Moon 5:24 PM BST (10/17) 5:45 AM BST (10/17)
Length of Visible Light 11h 43m
Length of Day
10h 36m
Waxing Gibbous, 97% of the Moon is Illuminated
Oct 17
Waxing Gibbous
Oct 19
Full
Oct 27
Last Quarter
Nov 3
New
Nov 10
First Quarter

Hourly Weather History & Observations

Time (BST) Temp. Dew Point Humidity Pressure Visibility Wind Dir Wind Speed Gust Speed Precip Events Conditions
12:50 AM 56 °F 52 °F 80% 29.88 in 12 mi WSW 6.9 mph - -   Scattered Clouds
12:50 AM 57.2 °F 51.8 °F 82% 29.86 in 6.2 mi WSW 6.9 mph - N/A   Partly Cloudy
1:50 AM 55.4 °F 50.0 °F 82% 29.86 in 6.2 mi SW 5.8 mph - N/A   Partly Cloudy
2:50 AM 55.4 °F 51.8 °F 88% 29.86 in 6.2 mi South 2.3 mph - N/A   Scattered Clouds
3:50 AM 55 °F 51 °F 83% 29.88 in 9 mi SSW 5.8 mph - -   Scattered Clouds
3:50 AM 55.4 °F 51.8 °F 88% 29.86 in 6.2 mi SSW 5.8 mph - N/A   Scattered Clouds
4:50 AM 57.2 °F 53.6 °F 88% 29.86 in 6.2 mi WSW 5.8 mph - N/A   Scattered Clouds
5:50 AM 57.2 °F 53.6 °F 88% 29.89 in 6.2 mi SW 9.2 mph - N/A   Partly Cloudy
6:50 AM 56 °F 53 °F 86% 29.90 in 6 mi SW 6.9 mph - -   Partly Cloudy
6:50 AM 55.4 °F 53.6 °F 94% 29.89 in 6.2 mi SW 6.9 mph - N/A   Scattered Clouds
7:50 AM 55.4 °F 51.8 °F 88% 29.89 in 6.2 mi SW 4.6 mph - N/A   Partly Cloudy
8:50 AM 57.2 °F 53.6 °F 88% 29.92 in 6.2 mi SW 8.1 mph - N/A   Scattered Clouds
9:50 AM 60 °F 55 °F 78% 29.95 in 12 mi WSW 9.2 mph - -   Partly Cloudy
9:50 AM 60.8 °F 55.4 °F 82% 29.95 in 6.2 mi WSW 9.2 mph - N/A   Scattered Clouds
10:50 AM 60.8 °F 53.6 °F 77% 29.95 in 6.2 mi WSW 10.4 mph - N/A   Partly Cloudy
11:50 AM 60.8 °F 51.8 °F 72% 29.95 in 6.2 mi West 11.5 mph - N/A   Partly Cloudy
12:50 PM 64 °F 52 °F 56% 29.98 in 25 mi West 12.7 mph - -   Scattered Clouds
12:50 PM 64.4 °F 51.8 °F 64% 29.98 in 6.2 mi West 12.7 mph - N/A   Scattered Clouds
1:50 PM 64.4 °F 51.8 °F 64% 29.98 in 6.2 mi WSW 9.2 mph - N/A   Partly Cloudy
2:50 PM 64.4 °F 53.6 °F 68% 29.98 in 6.2 mi WSW 9.2 mph - N/A   Partly Cloudy
3:50 PM 65 °F 52 °F 54% 29.97 in 16 mi West 9.2 mph - -   Scattered Clouds
3:50 PM 64.4 °F 51.8 °F 64% 29.95 in 6.2 mi West 9.2 mph - N/A   Scattered Clouds
4:50 PM 62.6 °F 57.2 °F 82% 29.95 in 6.2 mi South 10.4 mph - N/A   Partly Cloudy
5:50 PM 59.0 °F 55.4 °F 88% 29.95 in 6.2 mi SSW 8.1 mph - N/A   Unknown
6:50 PM 57 °F 55 °F 92% 29.99 in 6 mi SSW 5.8 mph - -  
6:50 PM 57.2 °F 55.4 °F 94% 29.98 in 5.6 mi SSW 5.8 mph - N/A   Unknown
7:50 PM 57.2 °F 55.4 °F 94% 29.98 in 6.2 mi West 1.2 mph - N/A   Mostly Cloudy
8:50 PM 55.4 °F 55.4 °F 100% 29.98 in 5.0 mi South 3.5 mph - N/A   Mostly Cloudy
9:50 PM 56 °F 54 °F 92% 30.00 in 6 mi South 6.9 mph - -   Mist
9:50 PM 55.4 °F 53.6 °F 94% 29.98 in 5.6 mi South 6.9 mph - N/A   Partly Cloudy
10:50 PM 53.6 °F 53.6 °F 100% 29.98 in 5.6 mi South 5.8 mph - N/A   Mist
11:50 PM 51.8 °F 51.8 °F 100% 29.98 in 4.3 mi ESE 3.5 mph - N/A   Mist